Miscellaneous Local Product
Issued by NWS North Platte, NE

Home | Current Version | Previous Version | Text Only | Print | Product List | Glossary On
Versions: 1 2 3 4 5 6 7 8 9 10 11 12 13 14 15 16 17 18 19 20 21 22 23 24 25 26 27 28 29 30 31 32 33 34 35 36 37 38 39 40 41 42 43 44 45 46 47 48 49 50
298
AXUS43 KLBF 082210
MISLBF


WESTERN AND NORTH CENTRAL NEBRASKA HOURLY WEATHER ROUNDUP
NATIONAL WEATHER SERVICE NORTH PLATTE NE
400 PM CST MON FEB 08 2016

NOTE: "FAIR" INDICATES FEW OR NO CLOUDS BELOW 12,000 FEET WITH NO
SIGNIFICANT WEATHER AND/OR OBSTRUCTIONS TO VISIBILITY.

NOTE: STATIONS NOT REPORTING VARIABLES SUCH AS SKY/WEATHER OR
PRESSURE ARE PROVIDED BY THE NEBRASKA DEPARTMENT OF
ROADS...RAWS...AND APRS NETWORKS...AND ARE NOT UNDER
NATIONAL WEATHER SERVICE QUALITY CONTROL.

...OBSERVATIONS IN AND NEAR THE EASTERN PANHANDLE OF NEBRASKA...

CITY           SKY/WX    TMP DP  RH WIND       PRES   REMARKS
PINE RIDGE     CLOUDY    39   7  26 NW15      30.27F WCI  31
CHADRON        CLOUDY    41  19  41 W9        30.28F
ALLIANCE       MOSUNNY   36  22  56 N14       30.26F WCI  27
SIDNEY         CLOUDY    39  27  62 N20       30.28S WCI  29
CRESCENT LAKE    N/A     37  16  43 N14G24      N/A  WCI  28
BIG SPRINGS      N/A     38  24  57 NW5         N/A  WCI  34
$$

...OBSERVATIONS IN NORTH CENTRAL NEBRASKA...

CITY           SKY/WX    TMP DP  RH WIND       PRES   REMARKS
VALENTINE      PTSUNNY   36  15  42 NW20G28   30.23F WCI  25
THEDFORD       CLOUDY    37  11  33 NW28G33   30.23F WCI  25
AINSWORTH      SUNNY     35  13  39 NW28G36   30.21S WCI  22
O`NEILL        PTSUNNY   34  19  54 NW30G37   30.18S WCI  20
ORD            CLOUDY    35  17  47 NW29G39   30.17S WCI  22
BROKEN BOW     MOSUNNY   36  13  38 NW29G46   30.19F WCI  23
VALENTINE NWR    N/A     36  11  35 NW24G33     N/A  WCI  24
BUTTE            N/A     33  20  58 NW25G39     N/A  WCI  20
HALSEY           N/A     38  10  31 NW16G29     N/A  WCI  29
CHAMBERS         N/A     35  16  46 N15         N/A  WCI  25
EWING            N/A     33  21  62 NW12G25     N/A  WCI  24
$$

...OBSERVATIONS IN SOUTHWEST NEBRASKA AND FAR NORTHEAST COLORADO...

CITY           SKY/WX    TMP DP  RH WIND       PRES   REMARKS
WRAY           CLOUDY    39  26  60 NW12      30.30S WCI  32
HOLYOKE        FAIR      41  27  56 NW21      30.29S
IMPERIAL       MOSUNNY   37  19  48 NW21G28   30.28S WCI  26
OGALLALA       CLOUDY    37  17  45 NW17      30.27S WCI  27
NORTH PLATTE   SUNNY     36  14  40 NW21G32   30.25S WCI  25
MCCOOK         MOSUNNY   37  19  48 NW21      30.27S WCI  26
LEXINGTON      MOSUNNY   37  16  42 NW24G33   30.22F WCI  25
PAXTON           N/A     39  23  53 NW12        N/A  WCI  32
STAPLETON        N/A     36  15  42 NW3G12      N/A
GOTHENBURG       N/A     36  15  41 NW14        N/A  WCI  27
CALLAWAY         N/A     35  14  43 N20         N/A  WCI  24
$$

...OBSERVATIONS IN CENTRAL LINCOLN COUNTY AREA...

CITY           SKY/WX    TMP DP  RH WIND       PRES   REMARKS
N.P. AIRPORT   SUNNY     36  14  40 NW21G32   30.25S WCI  25
N.P. DOWNTOWN    N/A     36  16  43 NW12G20     N/A  WCI  28
N.P. SOUTHEAST   N/A     37  15  40 N12G25      N/A  WCI  29
N.P. HILLCREST   N/A     36  16  44 NW22G29     N/A  WCI  25
$$

...SOME OBSERVATIONS FROM AROUND THE REGION...

CITY           SKY/WX    TMP DP  RH WIND       PRES   REMARKS
DENVER         CLOUDY    41  23  48 SE6       30.31F
LARAMIE        SUNNY     39  25  57 NW22G33   30.34F WCI  29
CHEYENNE       SUNNY     42  24  49 NW20G30   30.32R
SCOTTSBLUFF    CLOUDY    41  28  60 NW13      30.30S
RAPID CITY     CLOUDY    41   9  26 N20G35    30.24F
BISMARCK       CLOUDY    37  18  46 NW23G30   30.23F WCI  26
PIERRE         MOSUNNY   36  15  42 NW22G33   30.22S WCI  25
WINNER         FAIR      36  17  46 NW24G33   30.22S WCI  24
SIOUX FALLS    PTSUNNY   25  14  63 NW26G32   30.09S WCI   9
OMAHA          MOSUNNY   30  18  60 N29G39    30.08S WCI  15
GRAND ISLAND   SUNNY     35  17  47 NW26G36   30.17S WCI  22
KANSAS CITY    PTSUNNY   31  16  54 N26G37    30.06R WCI  17
WICHITA        MOSUNNY   44  11  26 NW33G45   30.20R
OKLAHOMA CITY  MOSUNNY   49   4  16 N33G47    30.21F
LIBERAL        SUNNY     48  10  21 N24G30    30.31F
HAYS           CLOUDY    39  14  35 NW30G37   30.27F WCI  27
GOODLAND       CLOUDY    37  21  52 N21G28    30.28S WCI  26
$$




USA.gov is the U.S. government's official web portal to all federal, state and local government web resources and services.